When you browse on this site, cookies collect data to enhance your experience and personalize the content and advertising you see.
Visit our Privacy Policy to learn more. By continuing to use the site, you agree to this use of cookies and data.
  • In Romania
  • List of Countries
  • For 7 days
  • Water Temperature
  • Satellite Maps
  • Weather Map
  • Weather Widgets
  • user-avatar
    Login

    Hourly Weather Szombathely

    Today, 22 January, Tuesday

    Time Temperature Precipitation Wind Pressure Humidity
    00:00 -2°C° 0 mm 0 mps 745 mmHg 59%
    01:00 -3°C° 0 mm 0 mps 745 mmHg 61%
    02:00 -3°C° 0 mm 0 mps 745 mmHg 62%
    03:00 -3°C° 0 mm 0 mps 744 mmHg 63%
    04:00 -3°C° 0 mm 0 mps 744 mmHg 64%
    05:00 -3°C° 0 mm 0 mps 744 mmHg 65%
    06:00 -3°C° 0 mm 0 mps 743 mmHg 66%
    07:00 -4°C° 0 mm 0 mps 743 mmHg 65%
    08:00 -3°C° 0 mm 0 mps 743 mmHg 62%
    09:00 -2°C° 0 mm 1 mps 743 mmHg 59%
    10:00 -1°C° 0 mm 1 mps 742 mmHg 55%
    11:00 0°C° 0 mm 1 mps 742 mmHg 53%
    12:00 0°C° 0 mm 1 mps 741 mmHg 50%
    13:00 -1°C° 0 mm 2 mps 740 mmHg 47%
    14:00 +1°C° 0 mm 1 mps 740 mmHg 48%
    15:00 0°C° 0 mm 1 mps 739 mmHg 50%
    16:00 0°C° 0 mm 1 mps 739 mmHg 51%
    17:00 -1°C° 0 mm 1 mps 738 mmHg 54%
    18:00 -1°C° 0 mm 1 mps 738 mmHg 56%
    19:00 -2°C° 0 mm 1 mps 737 mmHg 58%
    20:00 -2°C° 0 mm 1 mps 737 mmHg 60%
    21:00 -2°C° 0 mm 1 mps 737 mmHg 61%
    22:00 -2°C° 0 mm 1 mps 736 mmHg 63%
    23:00 -2°C° 0 mm 1 mps 736 mmHg 63%

    Tomorrow, 23 January, Wednesday

    Time Temperature Precipitation Wind Pressure Humidity
    00:00 -4°C° 0 mm 2 mps 735 mmHg 63%
    01:00 -4°C° 0 mm 2 mps 735 mmHg 64%
    02:00 -4°C° 0 mm 2 mps 734 mmHg 63%
    03:00 -4°C° 0 mm 2 mps 734 mmHg 63%
    04:00 -4°C° 0 mm 2 mps 733 mmHg 62%
    05:00 -5°C° 0.1 mm 2 mps 733 mmHg 66%
    06:00 -5°C° 0.1 mm 2 mps 733 mmHg 70%
    07:00 -5°C° 0.1 mm 2 mps 732 mmHg 74%
    08:00 -5°C° 0.3 mm 2 mps 732 mmHg 77%
    09:00 -4°C° 0.3 mm 2 mps 732 mmHg 79%
    10:00 -4°C° 0.3 mm 2 mps 732 mmHg 82%
    11:00 -4°C° 0.3 mm 2 mps 732 mmHg 83%
    12:00 -3°C° 0.3 mm 2 mps 731 mmHg 83%
    13:00 -1°C° 0.3 mm 1 mps 731 mmHg 83%
    14:00 -1°C° 0.1 mm 1 mps 731 mmHg 84%
    15:00 -1°C° 0.1 mm 1 mps 731 mmHg 86%
    16:00 -3°C° 0.1 mm 2 mps 731 mmHg 87%
    17:00 -1°C° 0 mm 1 mps 731 mmHg 89%
    18:00 -1°C° 0 mm 1 mps 731 mmHg 91%
    19:00 -1°C° 0 mm 1 mps 732 mmHg 93%
    20:00 -1°C° 0 mm 1 mps 732 mmHg 93%
    21:00 -1°C° 0 mm 1 mps 732 mmHg 93%
    22:00 -1°C° 0 mm 1 mps 733 mmHg 93%
    23:00 -1°C° 0 mm 1 mps 733 mmHg 93%

    Day after tomorrow, 24 January, Thursday

    Time Temperature Precipitation Wind Pressure Humidity
    00:00 -1°C° 0 mm 1 mps 733 mmHg 93%
    01:00 -1°C° 0 mm 1 mps 733 mmHg 94%
    02:00 -1°C° 0 mm 1 mps 733 mmHg 94%
    03:00 -4°C° 0 mm 2 mps 733 mmHg 94%
    04:00 -4°C° 0 mm 2 mps 733 mmHg 95%
    05:00 -3°C° 0 mm 2 mps 734 mmHg 94%
    06:00 -3°C° 0 mm 2 mps 734 mmHg 94%
    07:00 -3°C° 0 mm 2 mps 734 mmHg 93%
    08:00 -4°C° 0 mm 3 mps 735 mmHg 91%
    09:00 -2°C° 0 mm 3 mps 735 mmHg 88%
    10:00 -2°C° 0 mm 3 mps 735 mmHg 86%
    11:00 -3°C° 0 mm 4 mps 735 mmHg 82%
    12:00 -2°C° 0 mm 4 mps 735 mmHg 77%
    13:00 -2°C° 0 mm 5 mps 735 mmHg 73%
    14:00 -2°C° 0 mm 5 mps 735 mmHg 72%
    15:00 -4°C° 0 mm 5 mps 735 mmHg 71%
    16:00 -4°C° 0 mm 5 mps 735 mmHg 70%
    17:00 -5°C° 0 mm 6 mps 735 mmHg 70%
    18:00 -5°C° 0 mm 6 mps 736 mmHg 69%
    19:00 -6°C° 0 mm 7 mps 736 mmHg 68%
    20:00 -6°C° 0 mm 7 mps 736 mmHg 68%
    21:00 -7°C° 0 mm 7 mps 737 mmHg 68%
    22:00 -6°C° 0 mm 6 mps 737 mmHg 68%
    23:00 -6°C° 0 mm 6 mps 737 mmHg 69%

    25 January, Friday

    Time Temperature Precipitation Wind Pressure Humidity
    00:00 -7°C° 0 mm 7 mps 737 mmHg 70%
    01:00 -7°C° 0 mm 7 mps 737 mmHg 70%
    02:00 -7°C° 0 mm 7 mps 737 mmHg 69%
    03:00 -7°C° 0 mm 8 mps 736 mmHg 68%
    04:00 -7°C° 0 mm 8 mps 736 mmHg 67%
    05:00 -7°C° 0 mm 8 mps 737 mmHg 66%
    06:00 -7°C° 0 mm 8 mps 737 mmHg 66%
    07:00 -7°C° 0 mm 8 mps 737 mmHg 65%
    08:00 -7°C° 0 mm 8 mps 737 mmHg 62%
    09:00 -6°C° 0 mm 9 mps 737 mmHg 60%
    10:00 -7°C° 0 mm 10 mps 737 mmHg 57%
    11:00 -7°C° 0 mm 10 mps 737 mmHg 55%
    12:00 -5°C° 0 mm 10 mps 737 mmHg 53%
    13:00 -4°C° 0 mm 10 mps 737 mmHg 51%
    14:00 -5°C° 0 mm 10 mps 737 mmHg 52%
    15:00 -5°C° 0 mm 10 mps 737 mmHg 54%
    16:00 -5°C° 0 mm 10 mps 736 mmHg 55%
    17:00 -7°C° 0 mm 11 mps 737 mmHg 56%
    18:00 -7°C° 0 mm 11 mps 737 mmHg 57%
    19:00 -7°C° 0 mm 12 mps 738 mmHg 57%
    20:00 -7°C° 0 mm 11 mps 738 mmHg 58%
    21:00 -7°C° 0 mm 11 mps 738 mmHg 58%
    22:00 -8°C° 0 mm 11 mps 738 mmHg 59%
    23:00 -8°C° 0 mm 11 mps 738 mmHg 59%

    26 January, Saturday

    Time Temperature Precipitation Wind Pressure Humidity
    00:00 -8°C° 0 mm 11 mps 738 mmHg 58%
    01:00 -8°C° 0 mm 11 mps 738 mmHg 58%
    02:00 -8°C° 0 mm 11 mps 738 mmHg 58%
    03:00 -8°C° 0 mm 11 mps 738 mmHg 58%
    04:00 -8°C° 0 mm 11 mps 738 mmHg 57%
    05:00 -8°C° 0 mm 11 mps 738 mmHg 57%
    06:00 -8°C° 0 mm 11 mps 738 mmHg 56%
    07:00 -8°C° 0 mm 11 mps 738 mmHg 56%
    08:00 -8°C° 0 mm 11 mps 738 mmHg 54%
    09:00 -7°C° 0 mm 11 mps 738 mmHg 52%
    10:00 -7°C° 0 mm 11 mps 739 mmHg 51%
    11:00 -7°C° 0 mm 10 mps 739 mmHg 50%
    12:00 -5°C° 0 mm 10 mps 738 mmHg 49%
    13:00 -5°C° 0 mm 10 mps 738 mmHg 47%
    14:00 -5°C° 0 mm 9 mps 738 mmHg 49%
    15:00 -5°C° 0 mm 8 mps 738 mmHg 50%
    16:00 -5°C° 0 mm 8 mps 738 mmHg 52%
    17:00 -5°C° 0 mm 8 mps 738 mmHg 54%
    18:00 -6°C° 0 mm 7 mps 738 mmHg 55%
    19:00 -6°C° 0 mm 7 mps 738 mmHg 57%
    20:00 -6°C° 0 mm 7 mps 739 mmHg 57%
    21:00 -6°C° 0 mm 7 mps 739 mmHg 57%
    22:00 -5°C° 0 mm 6 mps 739 mmHg 58%
    23:00 -5°C° 0 mm 6 mps 739 mmHg 58%

    27 January, Sunday

    Time Temperature Precipitation Wind Pressure Humidity
    00:00 -6°C° 0 mm 5 mps 739 mmHg 58%
    01:00 -6°C° 0 mm 5 mps 739 mmHg 58%
    02:00 -6°C° 0 mm 5 mps 738 mmHg 59%
    03:00 -5°C° 0 mm 4 mps 738 mmHg 59%
    04:00 -5°C° 0 mm 4 mps 738 mmHg 59%
    05:00 -5°C° 0 mm 4 mps 738 mmHg 60%
    06:00 -5°C° 0 mm 3 mps 738 mmHg 60%
    07:00 -5°C° 0 mm 3 mps 738 mmHg 60%
    08:00 -5°C° 0 mm 3 mps 738 mmHg 59%
    09:00 -3°C° 0 mm 2 mps 738 mmHg 57%
    10:00 -3°C° 0 mm 2 mps 738 mmHg 55%
    11:00 -2°C° 0 mm 2 mps 737 mmHg 54%
    12:00 -2°C° 0 mm 2 mps 737 mmHg 52%
    13:00 -1°C° 0 mm 2 mps 737 mmHg 50%
    14:00 +1°C° 0 mm 1 mps 737 mmHg 52%
    15:00 +1°C° 0 mm 1 mps 737 mmHg 53%
    16:00 0°C° 0 mm 1 mps 737 mmHg 55%
    17:00 0°C° 0 mm 1 mps 737 mmHg 57%
    18:00 0°C° 0 mm 1 mps 737 mmHg 60%
    19:00 -2°C° 0 mm 0 mps 737 mmHg 62%
    20:00 -2°C° 0 mm 0 mps 737 mmHg 62%
    21:00 -2°C° 0 mm 0 mps 738 mmHg 63%
    22:00 -2°C° 0 mm 0 mps 738 mmHg 63%
    23:00 -1°C° 0 mm 1 mps 738 mmHg 65%
    Show more